[[{"header":{"parameterUnit":"m.s-1","parameterCategory":1,"la1":30.2991,"la2":30.254,"lo1":-89.0895,"lo2":-89.0444,"dy":0.0017,"dx":0.0017,"nx":28,"ny":28,"refTime":"2024-04-01T21:00:00:Z","depth":0,"parameterNumber":2,"parameterNumberName":"U-component_of_WINDS"},"data":[0,0,0,0,0,0,0,0,0,0,0,0,0,0,0,0,0,0,0,0,0,0,0,0,0,0,0,0,0,0,0,0,0,0,0,0,0,0,0,0,0,0,0,0,0,0,0,0,0,0,0,0,0,0,0,0,0,0,-2.5728,-2.573,0,-2.5866,-2.5867,-2.5869,-2.5919,-2.5919,-2.5918,-2.5918,-2.6058,-2.6062,-2.6066,0,0,0,0,0,0,0,0,0,0,0,0,0,-2.5509,-2.5513,-2.5728,-2.573,-2.5732,-2.5865,-2.5867,-2.5869,-2.5919,-2.5919,-2.5918,-2.5918,-2.6057,-2.6062,-2.6067,0,0,0,0,0,0,0,0,0,0,0,0,0,-2.5621,-2.5514,-2.5728,-2.5773,-2.5778,-2.5865,-2.5867,-2.587,-2.5919,-2.5919,-2.5918,-2.5917,-2.6055,-2.6061,-2.6067,-2.612,0,0,-2.6086,-2.6089,0,0,0,0,0,0,0,0,-2.5615,-2.5629,-2.5764,-2.577,-2.5776,-2.5875,-2.5842,-2.5953,-2.592,-2.5866,-2.5918,-2.5917,-2.5998,-2.6008,-2.6036,-2.6126,-2.6132,-2.6087,-2.6091,-2.6093,-2.6095,0,0,0,0,0,0,0,-2.5607,-2.5623,-2.5783,-2.5766,-2.5773,-2.5786,-2.5801,-2.5863,-2.5934,-2.587,-2.5874,-2.589,-2.6001,-2.603,-2.6039,-2.6134,-2.6087,-2.6092,-2.6096,-2.6099,-2.6274,-2.6275,0,0,0,0,0,0,-2.5592,-2.5617,-2.5778,-2.5787,-2.5692,-2.579,-2.5807,-2.5844,-2.5933,-2.5946,-2.589,-2.5892,-2.6019,-2.6032,-2.6045,-2.6111,-2.6093,-2.6099,-2.6103,-2.6273,-2.6274,-2.6275,0,0,0,0,0,0,-2.5587,-2.5606,-2.5773,-2.5703,-2.5725,-2.5795,-2.5835,-2.5847,-2.5876,-2.5948,-2.5961,-2.5907,-2.6019,-2.6036,-2.6101,-2.6117,-2.6102,-2.6108,-2.6272,-2.6274,-2.6275,-2.6245,0,0,0,0,0,0,-2.558,-2.5603,-2.5624,-2.5703,-2.5729,-2.5826,-2.5836,-2.585,-2.5886,-2.589,-2.5967,-2.598,-2.602,-2.6091,-2.6107,-2.6125,-2.6113,-2.6271,-2.6273,-2.6274,-2.6245,-2.6245,-2.6245,0,0,0,0,0,-2.5572,-2.561,-2.5625,-2.5644,-2.5756,-2.5827,-2.5842,-2.5887,-2.5888,-2.5909,-2.5955,-2.5977,-2.6113,-2.6097,-2.6115,-2.6136,-2.627,-2.6272,-2.6274,-2.6244,-2.6245,-2.6245,0,0,0,0,0,0,-2.5531,-2.5621,-2.5639,-2.5703,-2.5757,-2.5835,-2.5864,-2.5887,-2.5941,-2.5942,-2.5997,-2.6014,-2.6074,-2.6112,-2.6093,-2.6191,-2.6193,-2.6199,-2.6164,-2.6165,-2.6165,-2.6154,-2.6118,0,0,0,0,0,-2.553,-2.558,-2.5656,-2.5706,-2.5732,-2.5793,-2.5826,-2.5856,-2.5914,-2.5937,-2.5989,-2.6044,-2.6099,-2.6134,-2.6189,-2.6251,-2.6268,-2.6274,-2.6274,-2.6274,-2.6278,-2.6313,-2.6316,-2.6282,-2.6282,-2.6282,0,0,-2.5527,-2.5583,-2.5611,-2.5699,-2.5745,-2.5795,-2.5812,-2.5865,-2.5903,-2.5946,-2.601,-2.6049,-2.6115,-2.6178,-2.6208,-2.6211,-2.6292,-2.6277,-2.6276,-2.628,-2.6315,-2.6319,-2.6321,-2.6283,-2.6283,-2.6283,0,0,-2.5548,-2.5596,-2.5642,-2.5687,-2.5755,-2.5796,-2.5807,-2.5882,-2.591,-2.5975,-2.6008,-2.6054,-2.6148,-2.6193,-2.6228,-2.6267,-2.6288,-2.6283,-2.6284,-2.6318,-2.632,-2.6323,-2.6336,-2.634,-2.6287,-2.6287,-2.6287,0,-2.5536,-2.5614,-2.5663,-2.5714,-2.5752,-2.5793,-2.584,-2.5881,-2.5964,-2.5989,-2.5991,-2.6109,-2.6156,-2.623,-2.624,-2.6267,-2.6281,-2.6274,-2.6316,-2.6319,-2.6322,-2.6335,-2.634,-2.6286,-2.6286,-2.6286,-2.6286,0,-2.5596,-2.5649,-2.5679,-2.5757,-2.5798,-2.5847,-2.5903,-2.5939,-2.5966,-2.6006,-2.6071,-2.6129,-2.6196,-2.6216,-2.6244,-2.6294,-2.6294,-2.6305,-2.6308,-2.6324,-2.6337,-2.6342,-2.6284,-2.6284,-2.6285,-2.6285,0,0,-2.5594,-2.5699,-2.5709,-2.5745,-2.5824,-2.5866,-2.5917,-2.5982,-2.6012,-2.6068,-2.6111,-2.619,-2.6201,-2.6241,-2.6273,-2.6303,-2.6329,-2.6311,-2.6313,-2.6311,-2.6388,-2.6378,-2.6383,-2.6344,-2.6345,-2.6346,-2.6382,0,-2.5625,-2.5717,-2.5762,-2.5835,-2.5885,-2.5925,-2.5969,-2.6022,-2.6061,-2.6108,-2.6152,-2.6206,-2.6217,-2.6241,-2.6272,-2.6319,-2.6344,-2.6317,-2.6385,-2.6387,-2.6366,-2.639,-2.638,-2.6411,-2.6387,-2.6388,-2.6389,0,-2.5673,-2.5728,-2.5806,-2.5878,-2.5901,-2.594,-2.6003,-2.6049,-2.611,-2.6136,-2.618,-2.6212,-2.6267,-2.6266,-2.6343,-2.6323,-2.6354,-2.6381,-2.6383,-2.639,-2.6388,-2.6397,-2.6422,-2.6426,-2.6398,-2.6397,-2.6396,0,-2.5663,-2.5757,-2.5815,-2.5845,-2.5931,-2.5958,-2.5995,-2.6055,-2.6092,-2.6147,-2.6171,-2.6233,-2.6266,-2.6313,-2.6361,-2.6356,-2.6432,-2.6436,-2.6455,-2.6454,-2.6468,-2.6467,-2.6497,-2.6489,-2.6489,-2.6489,-2.6489,0,-2.5692,-2.5737,-2.5812,-2.5848,-2.59,-2.5951,-2.6002,-2.6042,-2.6095,-2.614,-2.6178,-2.6219,-2.628,-2.6328,-2.6366,-2.6423,-2.6438,-2.646,-2.647,-2.6457,-2.6453,-2.6477,-2.6475,-2.6491,-2.649,-2.649,-2.649,0,-2.5689,-2.5741,-2.5807,-2.5883,-2.5904,-2.5938,-2.6004,-2.604,-2.6081,-2.6137,-2.6153,-2.6217,-2.6276,-2.6328,-2.6406,-2.6432,-2.649,-2.6502,-2.6469,-2.6474,-2.649,-2.6488,-2.6536,-2.6545,-2.6531,-2.6531,-2.6531,0,-2.5704,-2.574,-2.582,-2.5852,-2.5888,-2.594,-2.5977,-2.603,-2.6067,-2.6139,-2.6167,-2.6229,-2.6281,-2.6373,-2.6427,-2.6487,-2.65,-2.6513,-2.6509,-2.6495,-2.6499,-2.6496,-2.65,-2.6512,-2.6512,-2.6512,-2.6512,0,-2.5724,-2.5748,-2.58,-2.5861,-2.5904,-2.5955,-2.6007,-2.6032,-2.6094,-2.6134,-2.6194,-2.6235,-2.6315,-2.6375,-2.6441,-2.648,-2.6506,-2.6513,-2.6521,-2.6507,-2.6486,-2.6497,-2.6468,-2.6511,-2.6511,-2.6511,-2.6512,-2.6512,-2.573,-2.5764,-2.5825,-2.5882,-2.5926,-2.5974,-2.6012,-2.6057,-2.6109,-2.6177,-2.6206,-2.6267,-2.6327,-2.6419,-2.6457,-2.6506,-2.6511,-2.6522,-2.6525,-2.6527,-2.6524,-2.6479,-2.6519,-2.6519,-2.6519,-2.6519,-2.6519,0,-2.5751,-2.5793,-2.5845,-2.5916,-2.5961,-2.5982,-2.604,-2.6076,-2.613,-2.6184,-2.6234,-2.6304,-2.6363,-2.6422,-2.6484,-2.6512,-2.6526,-2.6527,-2.6525,-2.6533,-2.6516,-2.6503,-2.6514,-2.6514,-2.6514,-2.6514,-2.6514,-2.6514,-2.5768,-2.5825,-2.5856,-2.5937,-2.5978,-2.6039,-2.607,-2.6114,-2.6158,-2.6233,-2.6283,-2.6321,-2.6377,-2.6443,-2.6498,-2.6514,-2.6535,-2.6532,-2.6551,-2.6535,-2.6534,-2.6534,-2.6522,-2.6537,-2.6537,-2.6564,-2.6564,-2.6564]},{"header":{"parameterUnit":"m.s-1","parameterCategory":1,"la1":30.2991,"la2":30.254,"lo1":-89.0895,"lo2":-89.0444,"dy":0.0017,"dx":0.0017,"nx":28,"ny":28,"refTime":"2024-04-01T21:00:00:Z","depth":0,"parameterNumber":3,"parameterNumberName":"V-component_of_WINDS"},"data":[0,0,0,0,0,0,0,0,0,0,0,0,0,0,0,0,0,0,0,0,0,0,0,0,0,0,0,0,0,0,0,0,0,0,0,0,0,0,0,0,0,0,0,0,0,0,0,0,0,0,0,0,0,0,0,0,0,0,4.3162,4.3163,0,4.3273,4.3275,4.3276,4.3305,4.3304,4.3303,4.3303,4.3414,4.3417,4.3421,0,0,0,0,0,0,0,0,0,0,0,0,0,4.2972,4.2975,4.3162,4.3163,4.3164,4.3273,4.3275,4.3276,4.3305,4.3304,4.3303,4.3302,4.3413,4.3417,4.3421,0,0,0,0,0,0,0,0,0,0,0,0,0,4.3066,4.2976,4.3161,4.3192,4.3196,4.3273,4.3275,4.3277,4.3305,4.3304,4.3303,4.3302,4.3411,4.3416,4.3422,4.3476,0,0,4.3438,4.3441,0,0,0,0,0,0,0,0,4.306,4.3073,4.3186,4.319,4.3194,4.3274,4.3249,4.3343,4.3305,4.3263,4.3303,4.3301,4.3368,4.3377,4.34,4.3481,4.3486,4.3439,4.3442,4.3444,4.3446,0,0,0,0,0,0,0,4.3054,4.3068,4.3206,4.3188,4.3193,4.32,4.3212,4.3267,4.332,4.3267,4.3269,4.3282,4.337,4.3395,4.3403,4.3487,4.3439,4.3443,4.3447,4.3449,4.3622,4.3623,0,0,0,0,0,0,4.3042,4.3062,4.3202,4.3209,4.3124,4.3204,4.3217,4.3249,4.3319,4.3329,4.3283,4.3283,4.3386,4.3396,4.3407,4.3477,4.3444,4.3449,4.3453,4.362,4.3622,4.3623,0,0,0,0,0,0,4.3038,4.3055,4.3198,4.3137,4.3155,4.3208,4.3244,4.3252,4.3277,4.3332,4.3341,4.3299,4.3386,4.3399,4.3459,4.3481,4.3452,4.3457,4.3619,4.3621,4.3623,4.3617,0,0,0,0,0,0,4.3033,4.3053,4.3074,4.3137,4.3159,4.3249,4.3245,4.3255,4.3287,4.3288,4.3349,4.3358,4.3386,4.3451,4.3465,4.3488,4.3461,4.3617,4.362,4.3622,4.3615,4.3619,4.3621,0,0,0,0,0,4.3026,4.3067,4.3075,4.3092,4.3186,4.325,4.3262,4.3295,4.3288,4.331,4.3346,4.3356,4.3476,4.3457,4.3473,4.3498,4.3616,4.3619,4.3622,4.3614,4.3618,4.3621,0,0,0,0,0,0,4.3003,4.3075,4.3085,4.3148,4.3193,4.3255,4.3283,4.3297,4.3344,4.3343,4.338,4.3393,4.3452,4.3481,4.3458,4.3556,4.3546,4.3552,4.3535,4.3539,4.3542,4.3534,4.3465,0,0,0,0,0,4.3006,4.3052,4.3112,4.3161,4.3184,4.323,4.3258,4.328,4.3327,4.3346,4.3386,4.3431,4.348,4.3511,4.3558,4.3619,4.3634,4.3645,4.3647,4.365,4.3655,4.3693,4.3699,4.3633,4.3633,4.3633,0,0,4.3011,4.3056,4.3083,4.3158,4.3196,4.3243,4.3245,4.3294,4.3331,4.3353,4.3414,4.3445,4.3497,4.356,4.3589,4.3585,4.3676,4.3653,4.3655,4.3659,4.3696,4.3703,4.3708,4.3635,4.3635,4.3635,0,0,4.3045,4.3083,4.313,4.3168,4.3226,4.3256,4.3267,4.3328,4.335,4.3412,4.3431,4.3473,4.3555,4.3593,4.3623,4.3675,4.3687,4.3689,4.3704,4.3741,4.3746,4.3751,4.3772,4.3778,4.3694,4.3694,4.3694,0,4.3044,4.3118,4.3152,4.3202,4.3236,4.326,4.3308,4.3343,4.3412,4.3435,4.343,4.3536,4.3573,4.3646,4.3659,4.3681,4.3696,4.3683,4.3742,4.3748,4.3753,4.3773,4.3781,4.3694,4.3694,4.3694,4.3694,0,4.3115,4.3165,4.3196,4.3265,4.3302,4.335,4.3392,4.3425,4.3444,4.3475,4.3538,4.3584,4.3643,4.3661,4.3678,4.3737,4.3734,4.3735,4.3727,4.3758,4.3778,4.3786,4.3694,4.3694,4.3694,4.3694,0,0,4.3138,4.3227,4.3238,4.3271,4.3337,4.3377,4.3427,4.3486,4.3514,4.3561,4.3605,4.3675,4.3678,4.3712,4.3734,4.3766,4.3807,4.3764,4.3766,4.3773,4.3878,4.3878,4.3887,4.3815,4.3817,4.3818,4.3875,0,4.3182,4.3275,4.3308,4.3384,4.3432,4.3457,4.3501,4.3547,4.3578,4.3623,4.3656,4.3707,4.3705,4.3726,4.3759,4.3795,4.3829,4.3791,4.3858,4.386,4.3846,4.3897,4.3896,4.3947,4.3882,4.3883,4.3884,0,4.3246,4.3297,4.3378,4.3442,4.3463,4.3502,4.3561,4.3603,4.3655,4.3676,4.3715,4.3736,4.379,4.3777,4.3854,4.3827,4.3856,4.3878,4.3881,4.389,4.3875,4.3909,4.3964,4.3973,4.3897,4.3896,4.3895,0,4.3259,4.3347,4.3408,4.3434,4.3509,4.3536,4.3568,4.362,4.3654,4.3704,4.3727,4.3782,4.3813,4.3855,4.3891,4.3878,4.3965,4.3954,4.3984,4.3984,4.4003,4.4001,4.4065,4.4017,4.4017,4.4017,4.4017,0,4.3306,4.3355,4.3415,4.3452,4.3509,4.3547,4.3601,4.3635,4.3681,4.3726,4.375,4.3791,4.3834,4.3881,4.3909,4.397,4.3982,4.4001,4.4008,4.4,4.3998,4.4021,4.4019,4.4019,4.4019,4.4018,4.4018,0,4.3329,4.3371,4.3439,4.3505,4.3523,4.3562,4.3618,4.3656,4.3688,4.3745,4.376,4.3811,4.3868,4.3907,4.3979,4.3998,4.4065,4.407,4.4048,4.4052,4.4081,4.4078,4.4163,4.4178,4.4118,4.4118,4.4118,0,4.3358,4.3397,4.3468,4.3501,4.3533,4.3585,4.3621,4.366,4.3696,4.3761,4.3791,4.385,4.39,4.399,4.4033,4.4089,4.4098,4.4124,4.4106,4.4098,4.4102,4.41,4.4105,4.4127,4.4127,4.4128,4.4128,0,4.3405,4.3425,4.3476,4.3536,4.3578,4.3627,4.3675,4.37,4.3748,4.3787,4.3847,4.3886,4.3962,4.4021,4.4082,4.4114,4.413,4.4133,4.4144,4.4137,4.4124,4.4134,4.4058,4.4131,4.4131,4.4131,4.4131,4.413,4.3434,4.3471,4.3528,4.3585,4.3626,4.3672,4.3712,4.375,4.3801,4.3867,4.3886,4.3949,4.4003,4.4087,4.4121,4.4171,4.4168,4.4183,4.4187,4.419,4.4192,4.4114,4.4181,4.4181,4.4181,4.4181,4.4181,0,4.3485,4.3524,4.3576,4.3644,4.369,4.3701,4.3756,4.3793,4.3849,4.3898,4.3947,4.4017,4.4075,4.4124,4.4184,4.4215,4.4224,4.423,4.4229,4.4237,4.4189,4.4175,4.4222,4.4222,4.4222,4.4222,4.4222,4.4222,4.3517,4.3582,4.3608,4.3694,4.3732,4.3795,4.3826,4.3868,4.3908,4.3986,4.4035,4.4066,4.4116,4.4181,4.4235,4.4248,4.427,4.4275,4.4289,4.4244,4.424,4.4235,4.4223,4.4278,4.4278,4.4333,4.4334,4.4334]}]]